Location: Newark
(25.6108°S, 54.5803°W)
Time: 16:35:29
(UTC+00:00)

Courier 1B Rocket - Pass Details

Date: 27 October 2020
Orbit: 920 x 1202 km, 28.2° (Epoch: 22 November)

Event Time Altitude Azimuth Distance (km) Brightness Sun altitude
Rises 16:14:12 0° 261° (W) 3,585 8.1 72.5°
Reaches altitude 10° 16:17:02 10° 270° (W) 2,623 7.6 72.0°
Maximum altitude 16:22:42 36° 334° (NNW) 1,416 6.9 71.0°
Drops below altitude 10° 16:28:22 10° 39° (NE) 2,628 7.4 70.0°
Sets 16:31:13 0° 47° (NE) 3,592 7.9 69.5°
